Imperial, NE

3:22 AM MDT on May 30, 2017 (GMT -0600)
Imperial Municipal

Weather History for KIML - May, 2013

Change the Weather History Date:

Monday, May 13, 2013

  Actual Average Record
Temperature  
Mean Temperature 72 °F 59 °F  
Max Temperature 94 °F 72 °F 98 °F (1941)
Min Temperature 49 °F 45 °F 27 °F (1953)
Degree Days  
Heating Degree Days 0 7  
Month to date heating degree days 164 118  
Cooling Degree Days 7 1  
Month to date cooling degree days 7 9  
Year to date cooling degree days 9 10  
Growing Degree Days 20 (Base 50)    
Moisture  
Dew Point 41 °F    
Average Humidity 47    
Maximum Humidity 80    
Minimum Humidity 14    
Precipitation  
Precipitation 0.00 in 0.08 in 1.68 in (1975)
Sea Level Pressure  
Sea Level Pressure 29.93 in    
Wind  
Wind Speed 6 mph (SSW)    
Max Wind Speed 14 mph    
Max Gust Speed 20 mph    
Visibility 8 miles    
Events      
T = Trace of Precipitation, MM = Missing Value Source: NWS Daily Summary

Daily Weather History Graph

Daily Weather History Graph

Search for Another Location

Airport or City:

Trip Planner

Search our weather history database for the weather conditions in past years. The results will help you decide how hot, cold, wet, or windy it might be!

Date:

Astronomy

May. 13, 2013 Rise Set
Actual Time 5:31 AM MDT 7:54 PM MDT
Civil Twilight 5:00 AM MDT 8:25 PM MDT
Nautical Twilight 4:22 AM MDT 9:03 PM MDT
Astronomical Twilight 3:40 AM MDT 9:46 PM MDT
Moon 8:19 AM MDT (5/13) 11:05 PM MDT (5/13)
Length of Visible Light 15h 24m
Length of Day
14h 23m
Waxing Crescent, 12% of the Moon is Illuminated
May 13
Waxing Crescent
May 17
First Quarter
May 24
Full
May 31
Last Quarter
Jun 8
New

Hourly Weather History & Observations

Time (MDT) Temp. Dew Point Humidity Pressure Visibility Wind Dir Wind Speed Gust Speed Precip Events Conditions
12:53 AM 57.0 °F 42.1 °F 57% 30.01 in 10.0 mi South 6.9 mph - N/A   Clear
1:53 AM 55.0 °F 42.1 °F 62% 29.99 in 10.0 mi South 6.9 mph - N/A   Clear
2:53 AM 54.0 °F 41.0 °F 62% 29.98 in 10.0 mi South 4.6 mph - N/A   Clear
3:53 AM 52.0 °F 42.1 °F 69% 29.97 in 10.0 mi South 6.9 mph - N/A   Clear
4:53 AM 54.0 °F 42.1 °F 64% 29.96 in 10.0 mi SSW 5.8 mph - N/A   Clear
5:53 AM 48.9 °F 42.1 °F 77% 29.96 in 10.0 mi WSW 4.6 mph - N/A   Clear
6:53 AM 52.0 °F 43.0 °F 71% 29.98 in 10.0 mi WSW 4.6 mph - N/A   Clear
7:53 AM 60.1 °F 45.0 °F 57% 29.99 in 10.0 mi WNW 5.8 mph - N/A   Clear
8:53 AM 68.0 °F 46.9 °F 47% 30.00 in 10.0 mi NW 4.6 mph - N/A   Clear
9:53 AM 79.0 °F 46.9 °F 32% 29.97 in 10.0 mi Calm Calm - N/A   Clear
10:53 AM 86.0 °F 41.0 °F 20% 29.96 in 10.0 mi NW 8.1 mph - N/A   Clear
11:53 AM 89.1 °F 37.9 °F 16% 29.94 in 10.0 mi Variable 5.8 mph - N/A   Clear
12:53 PM 89.1 °F 35.1 °F 15% 29.93 in 10.0 mi Variable 3.5 mph - N/A   Clear
2:53 PM 91.9 °F 35.1 °F 13% 29.91 in 10.0 mi Variable 5.8 mph - N/A   Partly Cloudy
3:53 PM 91.9 °F 36.0 °F 14% 29.90 in 10.0 mi NW 9.2 mph - N/A   Clear
4:53 PM 91.9 °F 36.0 °F 14% 29.88 in 10.0 mi WNW 6.9 mph - N/A   Clear
5:53 PM 91.4 °F 35.6 °F 14% 29.96 in 10.0 mi SW 5.8 mph - N/A   Clear
6:53 PM 88.0 °F 37.9 °F 17% 29.87 in 10.0 mi SSW 4.6 mph - N/A   Clear
7:11 PM 84.2 °F 42.8 °F 23% 29.95 in 1.8 mi South 4.6 mph - N/A   Haze
7:18 PM 82.4 °F 44.6 °F 26% 29.95 in 0.8 mi South 4.6 mph - N/A   Haze
7:23 PM 80.6 °F 46.4 °F 30% 29.95 in 1.0 mi South 5.8 mph - N/A   Haze
7:30 PM 82.4 °F 46.4 °F 28% 29.95 in 1.8 mi South 6.9 mph - N/A   Haze
7:35 PM 80.6 °F 44.6 °F 28% 29.95 in 3.0 mi South 6.9 mph - N/A   Haze
7:53 PM 79.0 °F 44.1 °F 29% 29.87 in 3.0 mi South 5.8 mph - N/A   Haze
8:53 PM 71.1 °F 43.0 °F 36% 29.88 in 10.0 mi South 6.9 mph - N/A   Clear
9:53 PM 69.1 °F 42.1 °F 38% 29.86 in 10.0 mi South 8.1 mph - N/A   Clear
10:53 PM 70.0 °F 39.9 °F 33% 29.84 in 10.0 mi SSW 8.1 mph - N/A   Clear
11:53 PM 66.9 °F 39.9 °F 37% 29.82 in 10.0 mi SSW 8.1 mph - N/A   Clear